Flag for Germany Weather past 2 weeks in Neuwied, Rhineland-Palatinate, Germany

Now
68 °F

Partly sunny.


Feels Like: 68 °F
Forecast: 57 / 85 °F
Wind: 5 mph from Southeast

Location: Buechel

Current Time: Aug 1, 2014 at 10:49:34 AM

Latest Report: Aug 1, 2014 at 9:20 AM


Visibility: N/A

Pressure: 29.92 "Hg

Humidity: 64%

Dew point: 55 °F

Location of NeuwiedLocation

Historic Weather in Neuwied — Graph

°F

Neuwied temperature yesterday

Maximum temperature yesterday: 73 °F (at 6:20 PM)
Minimum temperature yesterday: 55 °F (at 3:20 AM)
Average temperature yesterday: 64 °F

Past Weeks' High & Low Weather Summary

 TemperatureHumidityPressure
High86 °F (Jul 18, 4:20 PM)100% (Jul 22, 1:20 AM)30.21 "Hg (Jul 22, 1:20 AM)
Low55 °F (Jul 25, 5:20 AM)29% (Jul 18, 5:20 PM)29.80 "Hg (Jul 29, 6:20 PM)
Average68 °F70%29.97 "Hg
* Reported Jul 17 9:20 AM — Aug 1 9:20 AM, Neuwied, Weather by CustomWeather, © 2014

Note: Actual official high and low records may vary slightly from our data, if they occured in-between our weather recording intervals... More about our weather records

Advertising

Neuwied weather history for previous 24 hours

 ConditionsComfort  
Time TempWeatherWind HumidityBarometerVisibility
9:20 AM
Aug 1
68 °FPartly sunny.5 mph64%29.92 "HgN/A
8:20 AM64 °FPartly sunny.5 mph73%29.92 "HgN/A
7:20 AM64 °FPartly sunny.2 mph68%29.92 "HgN/A
6:20 AM61 °FPassing clouds.2 mph77%29.92 "HgN/A
5:20 AM59 °FPassing clouds.5 mph77%29.92 "HgN/A
4:20 AM63 °FPassing clouds.2 mph64%29.95 "HgN/A
3:20 AM63 °FMild.2 mph64%29.95 "HgN/A
2:20 AM63 °FMild.3 mph64%29.95 "HgN/A
1:20 AM64 °FMild.3 mph60%29.95 "HgN/A
12:20 AM64 °FMild.3 mph56%29.98 "HgN/A
11:20 PM
Jul 31
66 °FMild.3 mph52%29.98 "HgN/A
10:20 PM68 °FMild.3 mph53%29.98 "HgN/A
9:20 PM68 °FMild.5 mph53%29.98 "HgN/A
8:20 PM70 °FMild.5 mph50%29.98 "HgN/A
7:20 PM72 °FMild.2 mph44%29.98 "HgN/A
6:55 PM72 °FPassing clouds.6 mph44%29.98 "HgN/A
6:20 PM73 °FPassing clouds.5 mph38%29.98 "HgN/A
5:20 PM72 °FPassing clouds.7 mph44%29.98 "HgN/A
4:20 PM72 °FPassing clouds.3 mph47%30.01 "HgN/A
3:20 PM72 °FPassing clouds.7 mph47%30.01 "HgN/A
2:20 PM70 °FPassing clouds.6 mph53%30.01 "HgN/A
1:20 PM70 °FScattered clouds.6 mph57%30.04 "HgN/A
12:20 PM66 °FScattered clouds.5 mph60%30.04 "HgN/A
11:20 AM63 °FScattered clouds.5 mph73%30.04 "HgN/A
10:20 AM61 °FScattered clouds.2 mph83%30.04 "HgN/A
Weather by CustomWeather, © 2014

See weather overviewHow to use our weather pages